Argennos, Greece

7:37 PM EEST on September 20, 2017 (GMT +0300)
Molyvos (Mithymna) | | Change Station

Elev 138 ft 39.37 °N, 26.19 °E | Updated 14 seconds ago

Clear
Clear
80.9 °F
Feels Like 82 °F
N
1.0
Wind Variable Wind from SW
Gusts 5.0 mph

Today
High -- | Low -- °F
--% Chance of Precip.
Yesterday
High -- | Low -- °F
Precip. -- in
Pressure 29.77 in
Visibility -9999.0 miles
Clouds
Heat Index 82 °F
Dew Point 63 °F
Humidity 54%
Rainfall 0.00 in
Snow Depth Not available.
7:00 AM 7:15 PM
New Moon, 0% visible
METAR LGMT 201620Z 17008KT 120V240 CAVOK 28/13 Q1008
Pressure 29.77 in
Visibility -9999.0 miles
Clouds
Heat Index 82 °F
Dew Point 63 °F
Humidity 54%
Rainfall 0.00 in
Snow Depth Not available.
7:00 AM 7:15 PM
New Moon, 0% visible
METAR LGMT 201620Z 17008KT 120V240 CAVOK 28/13 Q1008

Get Severe Weather Alerts

Thanks for signing up!

Be on the lookout for a verification email in your inbox.

You'll start receiving the daily forecast at 6 AM.

×

10-Day Weather Forecast

×

Almanac

Astronomy

Sep. 20, 2017 Rise Set
Actual Time
Civil Twilight
Nautical Twilight
Astronomical Twilight
Moon
Length of Visible Light
Length of Day
Tomorrow will be .
, % of the Moon is Illuminated

Today's Extremes

Country Highs Country Lows

Community

WunderPhotos

Category 6

Welcome to Category 6. This is the collective home for Weather Underground's featured writeups by Dr. Jeff Masters (right), Bob Henson (left), Chris Burt, and other regular contributors.

Nearby

Air Quality

  Air Quality AQ Index Pollutant
Not available.

Snow Depth

Station Depth Elevation

Earthquake Activity

City Distance Mag. Time & Date
Minimum magnitude displayed is 2.5.

Coastal Water Temperatures

Place Temperature

Stations

Nearby Weather Stations

Station Location Temp. Windchill Dew Point Humidity Wind Precip. Elev Updated Type